Previsão horária em Barkowo

Hoje, 21 Outubro, Quarta-feira

Tempo Temperatura Precipitação Vento Pressão Humidade
00:00 +8°C° 0.2 mm 4 m/s 746 mmHg 84%
01:00 +9°C° 0.2 mm 3 m/s 746 mmHg 87%
02:00 +9°C° 0.1 mm 3 m/s 745 mmHg 89%
03:00 +9°C° 0.1 mm 3 m/s 745 mmHg 90%
04:00 +8°C° 0.1 mm 4 m/s 745 mmHg 92%
05:00 +9°C° 0.2 mm 3 m/s 745 mmHg 93%
06:00 +9°C° 0.2 mm 3 m/s 745 mmHg 95%
07:00 +9°C° 0.2 mm 3 m/s 745 mmHg 96%
08:00 +9°C° 0.4 mm 3 m/s 745 mmHg 96%
09:00 +10°C° 0.4 mm 3 m/s 746 mmHg 95%
10:00 +10°C° 0.4 mm 4 m/s 746 mmHg 95%
11:00 +10°C° 0.2 mm 4 m/s 746 mmHg 92%
12:00 +10°C° 0.2 mm 4 m/s 746 mmHg 90%
13:00 +10°C° 0.2 mm 4 m/s 745 mmHg 87%
14:00 +10°C° 0 mm 4 m/s 745 mmHg 85%
15:00 +10°C° 0 mm 4 m/s 745 mmHg 83%
16:00 +10°C° 0 mm 3 m/s 744 mmHg 82%
17:00 +10°C° 0 mm 4 m/s 744 mmHg 81%
18:00 +10°C° 0 mm 4 m/s 744 mmHg 80%
19:00 +10°C° 0 mm 4 m/s 744 mmHg 79%
20:00 +10°C° 0 mm 4 m/s 744 mmHg 80%
21:00 +10°C° 0 mm 4 m/s 744 mmHg 80%
22:00 +9°C° 0 mm 5 m/s 744 mmHg 80%
23:00 +9°C° 0 mm 5 m/s 744 mmHg 79%

Amanhã, 22 Outubro, Quinta-feira

Tempo Temperatura Precipitação Vento Pressão Humidade
00:00 +9°C° 0 mm 5 m/s 744 mmHg 77%
01:00 +10°C° 0 mm 5 m/s 744 mmHg 76%
02:00 +10°C° 0 mm 6 m/s 743 mmHg 76%
03:00 +10°C° 0 mm 6 m/s 743 mmHg 76%
04:00 +11°C° 0 mm 6 m/s 743 mmHg 75%
05:00 +11°C° 0 mm 6 m/s 743 mmHg 79%
06:00 +11°C° 0 mm 6 m/s 744 mmHg 82%
07:00 +11°C° 0 mm 6 m/s 744 mmHg 85%
08:00 +13°C° 0 mm 6 m/s 745 mmHg 82%
09:00 +14°C° 0 mm 6 m/s 745 mmHg 79%
10:00 +15°C° 0 mm 7 m/s 746 mmHg 76%
11:00 +16°C° 0 mm 6 m/s 746 mmHg 73%
12:00 +17°C° 0 mm 6 m/s 746 mmHg 71%
13:00 +17°C° 0 mm 6 m/s 746 mmHg 68%
14:00 +17°C° 0 mm 5 m/s 746 mmHg 71%
15:00 +17°C° 0 mm 4 m/s 746 mmHg 73%
16:00 +17°C° 0 mm 4 m/s 746 mmHg 75%
17:00 +15°C° 0 mm 4 m/s 746 mmHg 78%
18:00 +15°C° 0 mm 4 m/s 746 mmHg 81%
19:00 +14°C° 0 mm 4 m/s 746 mmHg 84%
20:00 +14°C° 0 mm 4 m/s 746 mmHg 85%
21:00 +13°C° 0 mm 4 m/s 746 mmHg 87%
22:00 +13°C° 0 mm 4 m/s 745 mmHg 88%
23:00 +13°C° 0 mm 4 m/s 745 mmHg 86%

Depois de amanhã, 23 Outubro, Sexta-feira

Tempo Temperatura Precipitação Vento Pressão Humidade
00:00 +13°C° 0 mm 5 m/s 745 mmHg 84%
01:00 +14°C° 0 mm 5 m/s 745 mmHg 83%
02:00 +13°C° 1.1 mm 5 m/s 745 mmHg 86%
03:00 +13°C° 1.1 mm 5 m/s 744 mmHg 89%
04:00 +13°C° 1.1 mm 5 m/s 744 mmHg 92%
05:00 +13°C° 0.3 mm 5 m/s 744 mmHg 91%
06:00 +13°C° 0.3 mm 5 m/s 744 mmHg 91%
07:00 +13°C° 0.3 mm 5 m/s 744 mmHg 90%
08:00 +14°C° 0.1 mm 5 m/s 744 mmHg 87%
09:00 +14°C° 0.1 mm 5 m/s 744 mmHg 84%
10:00 +14°C° 0.1 mm 5 m/s 744 mmHg 81%
11:00 +15°C° 0 mm 5 m/s 744 mmHg 77%
12:00 +15°C° 0 mm 5 m/s 744 mmHg 72%
13:00 +16°C° 0 mm 5 m/s 744 mmHg 68%
14:00 +15°C° 0 mm 4 m/s 744 mmHg 71%
15:00 +14°C° 0 mm 3 m/s 744 mmHg 74%
16:00 +15°C° 0 mm 2 m/s 744 mmHg 77%
17:00 +14°C° 0 mm 2 m/s 744 mmHg 81%
18:00 +13°C° 0 mm 2 m/s 744 mmHg 86%
19:00 +12°C° 0 mm 2 m/s 744 mmHg 90%
20:00 +12°C° 0 mm 2 m/s 744 mmHg 91%
21:00 +12°C° 0 mm 2 m/s 744 mmHg 91%
22:00 +13°C° 0 mm 2 m/s 744 mmHg 92%
23:00 +13°C° 0.3 mm 2 m/s 743 mmHg 93%

24 Outubro, Sábado

Tempo Temperatura Precipitação Vento Pressão Humidade
00:00 +13°C° 0.3 mm 2 m/s 743 mmHg 94%
01:00 +13°C° 0.3 mm 2 m/s 743 mmHg 95%
02:00 +13°C° 0.2 mm 2 m/s 742 mmHg 94%
03:00 +13°C° 0.2 mm 2 m/s 742 mmHg 94%
04:00 +12°C° 0.2 mm 3 m/s 742 mmHg 93%
05:00 +12°C° 0.8 mm 3 m/s 742 mmHg 91%
06:00 +12°C° 0.8 mm 4 m/s 741 mmHg 89%
07:00 +12°C° 0.8 mm 5 m/s 741 mmHg 87%
08:00 +10°C° 1.1 mm 6 m/s 742 mmHg 86%
09:00 +9°C° 1.1 mm 6 m/s 742 mmHg 85%
10:00 +9°C° 1.1 mm 7 m/s 743 mmHg 85%
11:00 +9°C° 0.3 mm 7 m/s 743 mmHg 80%
12:00 +9°C° 0.3 mm 8 m/s 744 mmHg 74%
13:00 +10°C° 0.3 mm 8 m/s 744 mmHg 69%
14:00 +9°C° 0.1 mm 8 m/s 745 mmHg 70%
15:00 +9°C° 0.1 mm 7 m/s 745 mmHg 70%
16:00 +9°C° 0.1 mm 6 m/s 746 mmHg 71%
17:00 +8°C° 0 mm 6 m/s 746 mmHg 73%
18:00 +7°C° 0 mm 5 m/s 747 mmHg 76%
19:00 +7°C° 0 mm 5 m/s 747 mmHg 79%
20:00 +7°C° 0 mm 5 m/s 748 mmHg 81%
21:00 +6°C° 0 mm 5 m/s 748 mmHg 84%
22:00 +6°C° 0 mm 4 m/s 749 mmHg 86%
23:00 +6°C° 0 mm 4 m/s 749 mmHg 87%

25 Outubro, Domingo

Tempo Temperatura Precipitação Vento Pressão Humidade
00:00 +5°C° 0 mm 4 m/s 749 mmHg 88%
01:00 +5°C° 0 mm 3 m/s 749 mmHg 89%
02:00 +5°C° 0 mm 3 m/s 749 mmHg 90%
03:00 +5°C° 0 mm 2 m/s 749 mmHg 91%
04:00 +5°C° 0 mm 2 m/s 749 mmHg 92%
05:00 +5°C° 0 mm 2 m/s 749 mmHg 92%
06:00 +5°C° 0 mm 2 m/s 749 mmHg 92%
07:00 +5°C° 0 mm 2 m/s 749 mmHg 92%
08:00 +6°C° 0 mm 2 m/s 750 mmHg 86%
09:00 +7°C° 0 mm 2 m/s 750 mmHg 80%
10:00 +9°C° 0 mm 2 m/s 750 mmHg 73%
11:00 +10°C° 0 mm 3 m/s 750 mmHg 71%
12:00 +11°C° 0 mm 3 m/s 749 mmHg 68%
13:00 +11°C° 0 mm 4 m/s 749 mmHg 65%
14:00 +11°C° 0 mm 3 m/s 749 mmHg 69%
15:00 +11°C° 0 mm 3 m/s 749 mmHg 74%
16:00 +10°C° 0 mm 2 m/s 748 mmHg 78%
17:00 +9°C° 0 mm 3 m/s 748 mmHg 80%
18:00 +9°C° 0 mm 3 m/s 748 mmHg 82%
19:00 +8°C° 0 mm 3 m/s 748 mmHg 84%
20:00 +8°C° 0 mm 3 m/s 748 mmHg 84%
21:00 +8°C° 0 mm 3 m/s 748 mmHg 84%
22:00 +7°C° 0 mm 3 m/s 748 mmHg 84%
23:00 +7°C° 0 mm 3 m/s 748 mmHg 86%

26 Outubro, Segunda-feira

Tempo Temperatura Precipitação Vento Pressão Humidade
00:00 +7°C° 0 mm 3 m/s 748 mmHg 87%
01:00 +7°C° 0 mm 3 m/s 748 mmHg 88%
02:00 +7°C° 0 mm 3 m/s 748 mmHg 89%
03:00 +5°C° 0 mm 3 m/s 748 mmHg 89%
04:00 +5°C° 0 mm 3 m/s 748 mmHg 89%
05:00 +5°C° 0 mm 3 m/s 748 mmHg 90%
06:00 +5°C° 0 mm 3 m/s 747 mmHg 90%
07:00 +5°C° 0 mm 4 m/s 747 mmHg 91%
08:00 +6°C° 0 mm 4 m/s 747 mmHg 85%
09:00 +7°C° 0 mm 4 m/s 747 mmHg 79%
10:00 +8°C° 0 mm 4 m/s 748 mmHg 74%
11:00 +11°C° 0 mm 4 m/s 747 mmHg 71%
12:00 +12°C° 0 mm 4 m/s 747 mmHg 69%
13:00 +13°C° 0 mm 5 m/s 747 mmHg 67%
14:00 +12°C° 0 mm 4 m/s 747 mmHg 70%
15:00 +12°C° 0 mm 3 m/s 747 mmHg 73%
16:00 +11°C° 0 mm 3 m/s 747 mmHg 76%
17:00 +10°C° 0 mm 3 m/s 747 mmHg 77%
18:00 +10°C° 0 mm 3 m/s 747 mmHg 78%
19:00 +9°C° 0 mm 3 m/s 748 mmHg 78%
20:00 +9°C° 0 mm 3 m/s 748 mmHg 79%
21:00 +8°C° 0 mm 3 m/s 748 mmHg 80%
22:00 +8°C° 0 mm 2 m/s 748 mmHg 81%
23:00 +7°C° 0 mm 2 m/s 749 mmHg 84%

27 Outubro, Terça-feira

Tempo Temperatura Precipitação Vento Pressão Humidade
00:00 +7°C° 0 mm 2 m/s 749 mmHg 86%
01:00 +7°C° 0 mm 2 m/s 749 mmHg 88%
02:00 +8°C° 0 mm 1 m/s 749 mmHg 90%
03:00 +8°C° 0 mm 1 m/s 749 mmHg 91%
04:00 +8°C° 0 mm 1 m/s 750 mmHg 92%
05:00 +8°C° 0 mm 1 m/s 750 mmHg 93%
06:00 +8°C° 0 mm 1 m/s 750 mmHg 94%
07:00 +8°C° 0 mm 1 m/s 751 mmHg 95%
08:00 +9°C° 0 mm 1 m/s 751 mmHg 93%
09:00 +9°C° 0 mm 2 m/s 751 mmHg 91%
10:00 +10°C° 0 mm 2 m/s 752 mmHg 89%
11:00 +12°C° 0 mm 2 m/s 752 mmHg 84%
12:00 +13°C° 0 mm 1 m/s 752 mmHg 79%
13:00 +14°C° 0 mm 1 m/s 752 mmHg 74%
14:00 +13°C° 0 mm 1 m/s 752 mmHg 76%
15:00 +13°C° 0 mm 1 m/s 753 mmHg 77%
16:00 +12°C° 0 mm 1 m/s 753 mmHg 78%
17:00 +12°C° 0 mm 1 m/s 753 mmHg 79%
18:00 +12°C° 0 mm 1 m/s 753 mmHg 80%
19:00 +11°C° 0 mm 1 m/s 753 mmHg 81%
20:00 +11°C° 0 mm 1 m/s 753 mmHg 82%
21:00 +11°C° 0 mm 1 m/s 754 mmHg 83%
22:00 +10°C° 0 mm 2 m/s 754 mmHg 84%
23:00 +9°C° 0 mm 2 m/s 754 mmHg 86%
Mostrar mais